[[{"header":{"parameterUnit":"m.s-1","parameterCategory":1,"la1":30.2991,"la2":30.254,"lo1":-89.0895,"lo2":-89.0444,"dy":0.0017,"dx":0.0017,"nx":28,"ny":28,"refTime":"2023-09-23T21:00:00:Z","depth":0,"parameterNumber":2,"parameterNumberName":"U-component_of_WINDS"},"data":[0,0,0,0,0,0,0,0,0,0,0,0,0,0,0,0,0,0,0,0,0,0,0,0,0,0,0,0,0,0,0,0,0,0,0,0,0,0,0,0,0,0,0,0,0,0,0,0,0,0,0,0,0,0,0,0,0,0,-1.3794,-1.3792,0,-1.3646,-1.3645,-1.3643,-1.3525,-1.3524,-1.3523,-1.3521,-1.337,-1.3367,-1.3364,0,0,0,0,0,0,0,0,0,0,0,0,0,-1.3976,-1.3974,-1.3794,-1.3792,-1.379,-1.3647,-1.3645,-1.3642,-1.3525,-1.3524,-1.3522,-1.3521,-1.3371,-1.3368,-1.3364,0,0,0,0,0,0,0,0,0,0,0,0,0,-1.387,-1.3973,-1.3795,-1.3715,-1.3706,-1.3647,-1.3644,-1.3642,-1.3525,-1.3524,-1.3522,-1.352,-1.3372,-1.3368,-1.3364,-1.3372,0,0,-1.335,-1.3348,0,0,0,0,0,0,0,0,-1.3876,-1.3863,-1.3728,-1.372,-1.371,-1.3602,-1.3653,-1.3551,-1.3526,-1.3594,-1.3521,-1.3519,-1.3449,-1.3438,-1.3414,-1.3365,-1.3358,-1.335,-1.3347,-1.3345,-1.3344,0,0,0,0,0,0,0,-1.3884,-1.3869,-1.3736,-1.3726,-1.3715,-1.3687,-1.367,-1.3633,-1.3533,-1.3588,-1.3579,-1.3563,-1.3443,-1.3419,-1.341,-1.3356,-1.335,-1.3346,-1.3343,-1.3342,-1.3309,-1.3311,0,0,0,0,0,0,-1.3903,-1.3876,-1.374,-1.3731,-1.3791,-1.3685,-1.3666,-1.3639,-1.3533,-1.3515,-1.3565,-1.3558,-1.3427,-1.3415,-1.3404,-1.3409,-1.3345,-1.3341,-1.3339,-1.3308,-1.331,-1.3312,0,0,0,0,0,0,-1.3908,-1.3892,-1.3746,-1.3801,-1.378,-1.3684,-1.3654,-1.3637,-1.3612,-1.3516,-1.3497,-1.3558,-1.3425,-1.341,-1.3381,-1.3402,-1.3339,-1.3335,-1.3305,-1.3308,-1.3311,-1.3418,0,0,0,0,0,0,-1.3913,-1.3895,-1.3896,-1.3802,-1.3778,-1.3726,-1.3655,-1.3635,-1.3604,-1.3594,-1.3504,-1.3488,-1.3423,-1.3389,-1.3377,-1.3395,-1.3332,-1.3303,-1.3307,-1.331,-1.3412,-1.3424,-1.3434,0,0,0,0,0,-1.392,-1.3931,-1.3897,-1.3881,-1.3778,-1.3727,-1.3714,-1.3639,-1.3607,-1.3608,-1.3547,-1.349,-1.3401,-1.3387,-1.3373,-1.3389,-1.3302,-1.3306,-1.331,-1.3407,-1.3421,-1.3433,0,0,0,0,0,0,-1.403,-1.3918,-1.3878,-1.3859,-1.3804,-1.3708,-1.3707,-1.3656,-1.3608,-1.3601,-1.351,-1.3491,-1.3472,-1.3427,-1.3413,-1.3393,-1.3344,-1.3346,-1.3423,-1.3436,-1.3447,-1.3458,-1.3328,0,0,0,0,0,-1.4052,-1.402,-1.3924,-1.3916,-1.3891,-1.3804,-1.3779,-1.3726,-1.3665,-1.3641,-1.3578,-1.3521,-1.3481,-1.3456,-1.3413,-1.3405,-1.3385,-1.3409,-1.342,-1.343,-1.3432,-1.3427,-1.3438,-1.3325,-1.3325,-1.3325,0,0,-1.4097,-1.4031,-1.4017,-1.3937,-1.3887,-1.3858,-1.3785,-1.3755,-1.3733,-1.3637,-1.3606,-1.3558,-1.3489,-1.3472,-1.3461,-1.3434,-1.3459,-1.3435,-1.3443,-1.344,-1.3433,-1.3444,-1.3453,-1.3328,-1.3327,-1.3327,0,0,-1.4163,-1.411,-1.4099,-1.4052,-1.398,-1.3922,-1.392,-1.3832,-1.3797,-1.3765,-1.3693,-1.3665,-1.3596,-1.3551,-1.3519,-1.3572,-1.3519,-1.356,-1.3618,-1.3614,-1.3623,-1.3631,-1.3651,-1.366,-1.3563,-1.3563,-1.3564,0,-1.4228,-1.418,-1.41,-1.4076,-1.4044,-1.3957,-1.3946,-1.3904,-1.3821,-1.3801,-1.3772,-1.3686,-1.3633,-1.3606,-1.3619,-1.3595,-1.3591,-1.357,-1.3628,-1.3635,-1.3641,-1.366,-1.3668,-1.3569,-1.3568,-1.3568,-1.3567,0,-1.4264,-1.4232,-1.4232,-1.4156,-1.4123,-1.4106,-1.4025,-1.4002,-1.3953,-1.3899,-1.387,-1.3803,-1.3747,-1.3736,-1.3687,-1.3702,-1.3688,-1.3645,-1.3594,-1.3659,-1.3675,-1.3681,-1.3577,-1.3575,-1.3573,-1.3572,0,0,-1.4394,-1.4276,-1.4277,-1.4243,-1.4158,-1.4131,-1.4111,-1.4056,-1.404,-1.3986,-1.3968,-1.3913,-1.3874,-1.3838,-1.3783,-1.378,-1.3829,-1.3737,-1.3734,-1.3758,-1.3844,-1.3879,-1.3888,-1.3794,-1.3795,-1.3796,-1.3851,0,-1.4449,-1.4407,-1.4336,-1.4318,-1.4289,-1.4207,-1.419,-1.4137,-1.4087,-1.4055,-1.3999,-1.3963,-1.3912,-1.389,-1.3883,-1.3825,-1.3846,-1.382,-1.3777,-1.3777,-1.3798,-1.3896,-1.3931,-1.3986,-1.3856,-1.3857,-1.3858,0,-1.4506,-1.4459,-1.4438,-1.4358,-1.4343,-1.4328,-1.4274,-1.4244,-1.4183,-1.4147,-1.4109,-1.405,-1.4025,-1.3979,-1.3946,-1.393,-1.3909,-1.3878,-1.3878,-1.3872,-1.3822,-1.3894,-1.4002,-1.4011,-1.3867,-1.3866,-1.3866,0,-1.4605,-1.4536,-1.4516,-1.4489,-1.4393,-1.4386,-1.4346,-1.4283,-1.4255,-1.4208,-1.419,-1.4141,-1.4114,-1.4077,-1.4008,-1.398,-1.3983,-1.393,-1.3954,-1.3956,-1.3958,-1.3959,-1.4066,-1.3943,-1.3943,-1.3943,-1.3942,0,-1.4674,-1.4665,-1.456,-1.4547,-1.4536,-1.4455,-1.4446,-1.4399,-1.4344,-1.4322,-1.4247,-1.4228,-1.4137,-1.4107,-1.4052,-1.4035,-1.4023,-1.3994,-1.398,-1.4001,-1.4005,-1.3986,-1.3981,-1.3945,-1.3944,-1.3944,-1.3943,0,-1.4783,-1.4712,-1.4685,-1.4598,-1.4576,-1.4572,-1.4497,-1.4483,-1.4429,-1.4403,-1.4392,-1.4308,-1.427,-1.4197,-1.4137,-1.4101,-1.4096,-1.407,-1.4117,-1.4108,-1.4137,-1.4136,-1.4236,-1.4246,-1.4116,-1.4118,-1.4119,0,-1.4832,-1.4824,-1.4737,-1.4717,-1.468,-1.4649,-1.4621,-1.4542,-1.4516,-1.4448,-1.4442,-1.4399,-1.4359,-1.4303,-1.4237,-1.4193,-1.4166,-1.4204,-1.4159,-1.4182,-1.4169,-1.4171,-1.4171,-1.4215,-1.4217,-1.4218,-1.4219,0,-1.4927,-1.4893,-1.4856,-1.4808,-1.4778,-1.4735,-1.4689,-1.4678,-1.4588,-1.4563,-1.4524,-1.4494,-1.4435,-1.4394,-1.434,-1.4299,-1.4246,-1.4234,-1.4238,-1.426,-1.4289,-1.4276,-1.4146,-1.4232,-1.4231,-1.423,-1.4229,-1.4229,-1.5008,-1.4998,-1.4937,-1.4899,-1.4856,-1.4816,-1.4799,-1.4744,-1.471,-1.4656,-1.4612,-1.4577,-1.4518,-1.4441,-1.4404,-1.4376,-1.435,-1.4355,-1.4356,-1.4359,-1.4369,-1.4293,-1.4366,-1.4366,-1.4365,-1.4365,-1.4364,0,-1.5102,-1.5058,-1.5024,-1.4963,-1.4934,-1.4886,-1.4834,-1.4813,-1.4783,-1.4733,-1.4697,-1.4653,-1.4613,-1.4546,-1.45,-1.4492,-1.4466,-1.4483,-1.4483,-1.4475,-1.4393,-1.4396,-1.4504,-1.4504,-1.4504,-1.4504,-1.4504,-1.4504,-1.5147,-1.5128,-1.5087,-1.5047,-1.5004,-1.497,-1.4944,-1.4907,-1.4867,-1.4822,-1.4789,-1.4745,-1.4688,-1.4639,-1.4601,-1.4582,-1.457,-1.4595,-1.4568,-1.4494,-1.448,-1.4468,-1.447,-1.4592,-1.4592,-1.4652,-1.4653,-1.4653]},{"header":{"parameterUnit":"m.s-1","parameterCategory":1,"la1":30.2991,"la2":30.254,"lo1":-89.0895,"lo2":-89.0444,"dy":0.0017,"dx":0.0017,"nx":28,"ny":28,"refTime":"2023-09-23T21:00:00:Z","depth":0,"parameterNumber":3,"parameterNumberName":"V-component_of_WINDS"},"data":[0,0,0,0,0,0,0,0,0,0,0,0,0,0,0,0,0,0,0,0,0,0,0,0,0,0,0,0,0,0,0,0,0,0,0,0,0,0,0,0,0,0,0,0,0,0,0,0,0,0,0,0,0,0,0,0,0,0,0.1573,0.1574,0,0.1626,0.1627,0.1628,0.162,0.1619,0.1618,0.1617,0.1676,0.1678,0.1681,0,0,0,0,0,0,0,0,0,0,0,0,0,0.1468,0.147,0.1573,0.1574,0.1574,0.1626,0.1627,0.1628,0.162,0.1619,0.1617,0.1616,0.1675,0.1678,0.1681,0,0,0,0,0,0,0,0,0,0,0,0,0,0.1517,0.147,0.1573,0.1577,0.1577,0.1626,0.1627,0.1628,0.162,0.1619,0.1617,0.1616,0.1674,0.1678,0.1681,0.1731,0,0,0.1692,0.1694,0,0,0,0,0,0,0,0,0.1514,0.1521,0.1575,0.1576,0.1577,0.1615,0.1612,0.1663,0.162,0.1604,0.1617,0.1615,0.1657,0.1662,0.1675,0.1734,0.1737,0.1693,0.1695,0.1696,0.1698,0,0,0,0,0,0,0,0.1511,0.1518,0.1594,0.1576,0.1577,0.1577,0.1582,0.1621,0.1638,0.1605,0.1605,0.1611,0.1657,0.1672,0.1676,0.1737,0.1693,0.1696,0.1698,0.17,0.1838,0.184,0,0,0,0,0,0,0.1506,0.1515,0.1593,0.1596,0.1541,0.158,0.1586,0.1604,0.1637,0.1641,0.1612,0.161,0.1666,0.1672,0.1678,0.1737,0.1696,0.17,0.1702,0.1837,0.1839,0.184,0,0,0,0,0,0,0.1503,0.1513,0.1591,0.1556,0.1565,0.1583,0.1604,0.1606,0.162,0.1642,0.1646,0.1623,0.1665,0.1673,0.1717,0.1739,0.1702,0.1705,0.1835,0.1838,0.184,0.1856,0,0,0,0,0,0,0.15,0.1512,0.153,0.1556,0.1567,0.1628,0.1605,0.1608,0.1626,0.1624,0.1654,0.1657,0.1665,0.1712,0.1721,0.1744,0.1708,0.1833,0.1836,0.1839,0.1854,0.1859,0.1863,0,0,0,0,0,0.1497,0.1534,0.1531,0.1541,0.159,0.1629,0.1635,0.1642,0.1628,0.1647,0.1661,0.1656,0.1736,0.1717,0.1727,0.1751,0.1832,0.1835,0.1839,0.1852,0.1858,0.1863,0,0,0,0,0,0,0.1512,0.1538,0.1535,0.1581,0.1603,0.1627,0.1651,0.1648,0.1675,0.1673,0.1681,0.1688,0.1732,0.1746,0.1724,0.18,0.1782,0.1788,0.1789,0.1795,0.1799,0.1794,0.1711,0,0,0,0,0,0.1521,0.1549,0.157,0.1609,0.162,0.1634,0.1651,0.1654,0.1677,0.1686,0.1704,0.1728,0.1758,0.1777,0.1807,0.1857,0.1862,0.1878,0.1883,0.1887,0.1891,0.1917,0.1923,0.1852,0.1852,0.1851,0,0,0.154,0.1557,0.1574,0.1613,0.163,0.1659,0.1642,0.1674,0.1696,0.1692,0.1733,0.1747,0.1774,0.1821,0.1842,0.1834,0.1912,0.1891,0.1894,0.1896,0.1921,0.1928,0.1934,0.1854,0.1853,0.1853,0,0,0.1588,0.1604,0.1637,0.1654,0.1679,0.1688,0.1696,0.1721,0.1729,0.1771,0.1768,0.1795,0.1848,0.1866,0.1883,0.1937,0.1933,0.1947,0.197,0.1995,0.2001,0.2006,0.2023,0.203,0.1951,0.1951,0.1951,0,0.1608,0.165,0.1656,0.1687,0.1704,0.17,0.1734,0.1751,0.1785,0.1797,0.1787,0.1851,0.187,0.1919,0.1932,0.1947,0.1956,0.1942,0.1999,0.2005,0.2009,0.2026,0.2033,0.1952,0.1952,0.1952,0.1952,0,0.1673,0.1702,0.1727,0.1757,0.1777,0.181,0.1821,0.184,0.1842,0.1852,0.1894,0.1916,0.1948,0.1961,0.1964,0.2011,0.2005,0.1997,0.1979,0.2017,0.2033,0.204,0.1954,0.1954,0.1953,0.1953,0,0,0.1731,0.1763,0.1772,0.1785,0.1812,0.1836,0.1869,0.1899,0.1915,0.1939,0.1966,0.201,0.2002,0.2021,0.2026,0.2048,0.2087,0.2038,0.2038,0.2044,0.2139,0.2143,0.215,0.2086,0.2087,0.2088,0.2136,0,0.178,0.1836,0.1841,0.1891,0.1918,0.1915,0.1944,0.1964,0.1974,0.2,0.2012,0.2042,0.2031,0.2042,0.2064,0.2078,0.2106,0.2075,0.2111,0.2112,0.2102,0.2159,0.2164,0.2207,0.2143,0.2144,0.2144,0,0.1845,0.1868,0.192,0.1941,0.1953,0.1978,0.2005,0.203,0.2053,0.2059,0.2079,0.208,0.2115,0.2096,0.2143,0.2122,0.2138,0.2147,0.2149,0.2151,0.2129,0.2161,0.2222,0.2228,0.2155,0.2154,0.2153,0,0.1879,0.1924,0.196,0.1972,0.1999,0.2016,0.2029,0.205,0.2068,0.2092,0.2103,0.2133,0.2148,0.2171,0.2181,0.2167,0.2227,0.221,0.2232,0.2232,0.2244,0.2242,0.2306,0.2257,0.2257,0.2257,0.2257,0,0.1932,0.1963,0.1976,0.1998,0.2033,0.204,0.2075,0.2087,0.2106,0.2131,0.2132,0.2155,0.2167,0.2193,0.2202,0.2238,0.2246,0.2252,0.2253,0.2251,0.2249,0.2259,0.2256,0.2259,0.2258,0.2258,0.2258,0,0.1976,0.1985,0.2024,0.2046,0.2053,0.2077,0.2097,0.2118,0.2128,0.216,0.2168,0.2184,0.2214,0.2226,0.2265,0.227,0.2312,0.2312,0.2303,0.2303,0.2324,0.2321,0.2395,0.2404,0.2351,0.2351,0.2352,0,0.2008,0.2031,0.2055,0.2071,0.2083,0.2109,0.2126,0.2134,0.2152,0.2179,0.2197,0.2227,0.2251,0.23,0.2316,0.2344,0.2344,0.2368,0.2348,0.2344,0.2342,0.2339,0.2341,0.2371,0.2371,0.2372,0.2372,0,0.2062,0.2066,0.2089,0.2114,0.2134,0.2154,0.2174,0.2188,0.2199,0.2219,0.2249,0.2267,0.2304,0.2334,0.2363,0.2377,0.2376,0.2378,0.2385,0.2381,0.2374,0.2376,0.231,0.2376,0.2376,0.2376,0.2375,0.2375,0.21,0.212,0.2139,0.2165,0.2181,0.2199,0.222,0.2232,0.2256,0.2285,0.229,0.2321,0.2343,0.2382,0.2397,0.2423,0.2417,0.2427,0.2429,0.2431,0.2431,0.2371,0.2429,0.2429,0.2429,0.2428,0.2428,0,0.2153,0.2165,0.2189,0.2215,0.2236,0.2232,0.2254,0.2271,0.2298,0.2318,0.2341,0.2375,0.2403,0.2421,0.245,0.2467,0.2467,0.2474,0.2472,0.2474,0.2436,0.2426,0.2473,0.2473,0.2473,0.2473,0.2473,0.2473,0.2183,0.2216,0.2221,0.2262,0.2275,0.2304,0.2316,0.2333,0.2349,0.2386,0.2408,0.2419,0.2438,0.2468,0.2494,0.2499,0.2508,0.2515,0.2519,0.2482,0.2477,0.2473,0.2464,0.2518,0.2518,0.2556,0.2556,0.2556]}]]